Location: Unnamed
(48.2382°N, 16.3826°E)
Time: 11:32:28
(UTC+02:00)

Falcon 9 debris - Pass Details

Date: 22 August 2020
Orbit: 426 x 434 km, 53.0° (Epoch: 23 September)

Event Time Altitude Azimuth Distance (km) Brightness Sun altitude
Rises 23:03:47 0° 290° (WNW) 2,412 ? -25.3°
Reaches altitude 10° 23:06:15 10° 273° (W) 1,541 ? -25.5°
Enters shadow 23:06:51 13° 265° (W) 1,368 ? -25.6°
